Date,TemperatureHighF,TemperatureAvgF,TemperatureLowF,DewpointHighF,DewpointAvgF,DewpointLowF,HumidityHigh,HumidityAvg,HumidityLow,PressureMaxIn,PressureMinIn,WindSpeedMaxMPH,WindSpeedAvgMPH,GustSpeedMaxMPH,PrecipitationSumIn
2013-12-1,39,33,28,39,33,23,99,98,87,0.00,40.00,0,-999,0,0.00
2013-12-2,38,35,31,38,34,31,99,99,99,0.00,40.00,0,-999,0,0.00
2013-12-3,44,34,28,43,34,28,99,98,86,0.00,40.00,0,-999,0,0.00
2013-12-4,42,31,26,36,29,25,99,94,63,0.00,40.00,0,-999,0,0.00
2013-12-5,53,42,30,53,42,30,99,99,99,0.00,40.00,0,-999,0,0.00
2013-12-6,53,44,32,53,44,32,99,99,99,0.00,40.00,0,-999,0,0.00
2013-12-7,34,30,24,34,29,23,99,96,75,0.00,40.00,0,-999,0,0.00
2013-12-8,29,25,20,26,19,13,99,83,57,0.00,40.00,0,-999,0,0.00
2013-12-9,33,29,23,33,29,17,99,98,76,0.00,40.00,0,-999,0,0.00
2013-12-10,32,28,19,32,28,19,99,99,99,0.00,40.00,0,-999,0,0.00
2013-12-11,28,22,19,23,20,17,99,93,75,0.00,40.00,0,-999,0,0.00
2013-12-12,21,16,12,21,-2,-100,99,76,42,0.00,40.00,0,-999,0,0.00
2013-12-13,27,19,12,21,10,4,99,75,58,0.00,40.00,0,-999,0,0.00
2013-12-14,17,13,10,17,4,-5,99,77,53,0.00,40.00,0,-999,0,0.00
2013-12-15,28,24,17,28,24,17,99,98,88,0.00,40.00,0,-999,0,0.00
2013-12-16,27,20,12,22,2,-100,99,72,45,0.00,40.00,0,-999,0,0.00
2013-12-17,14,9,0,14,8,-2,99,97,82,0.00,40.00,0,-999,0,0.00
2013-12-18,30,20,12,24,19,12,99,95,77,0.00,40.00,0,-999,0,0.00
2013-12-19,38,30,22,31,24,21,99,83,59,0.00,40.00,0,-999,0,0.00
2013-12-20,48,38,29,36,32,29,99,85,58,0.00,40.00,0,-999,0,0.00
2013-12-21,53,45,34,51,43,33,99,94,79,0.00,40.00,0,-999,0,0.00
2013-12-22,63,58,50,63,58,50,99,99,99,0.00,40.00,0,-999,0,0.00
2013-12-23,58,40,34,58,40,34,99,99,88,0.00,40.00,0,-999,0,0.00
2013-12-24,34,29,20,34,22,7,99,80,57,0.00,40.00,0,-999,0,0.00
2013-12-25,21,17,11,7,-14,-100,74,60,43,0.00,40.00,0,-999,0,0.00
2013-12-26,30,23,16,30,20,4,99,92,65,0.00,40.00,0,-999,0,0.00
2013-12-27,32,25,18,26,21,18,99,89,67,0.00,40.00,0,-999,0,0.00
2013-12-28,40,31,23,32,27,23,99,86,59,0.00,40.00,0,-999,0,0.00
2013-12-29,39,33,27,38,33,27,99,98,77,0.00,40.00,0,-999,0,0.00
2013-12-30,37,28,14,37,21,6,99,80,51,0.00,40.00,0,-999,0,0.00
2013-12-31,22,16,9,19,10,1,99,84,52,0.00,40.00,0,-999,0,0.00